Location: *
(45.9500°N, 9.0833°E)
Time: 20:54:01
(UTC+00:00)

A-11 Canister half - All Passes

Search period start: 13 June 2021 00:00
Search period end: 23 June 2021 00:00
Orbit: 1513 x 1686 km, 47.2° (Epoch: 12 June)

Date Brightness Start Highest point End Pass type
(mag) Time Alt. Az. Time Alt. Az. Time Alt. Az.
13 Jun - 03:43:14 10° S 03:50:27 23° SE 03:57:28 10° E daylight
13 Jun - 05:44:22 10° SW 05:54:03 62° SSE 06:03:24 10° ENE daylight
13 Jun - 07:49:04 10° W 07:58:54 85° N 08:08:21 10° E daylight
13 Jun - 09:54:28 10° WNW 10:04:06 87° SSW 10:13:26 10° ESE daylight
13 Jun - 11:59:41 10° WNW 12:08:26 45° SW 12:17:00 10° SSE daylight
13 Jun - 14:08:03 10° WSW 14:11:19 12° WSW 14:14:34 10° SW daylight
14 Jun - 03:20:42 10° S 03:27:37 22° SE 03:34:23 10° E daylight
14 Jun - 05:21:30 10° SW 05:31:09 59° SSE 05:40:29 10° ENE daylight
14 Jun - 07:26:06 10° W 07:35:57 86° N 07:45:26 10° E daylight
14 Jun - 09:31:30 10° WNW 09:41:11 88° SSW 09:50:32 10° ESE daylight
14 Jun - 11:36:42 10° WNW 11:45:35 47° SW 11:54:15 10° SSE daylight
14 Jun - 13:44:29 10° W 13:48:32 14° WSW 13:52:35 10° SSW daylight
15 Jun - 02:58:11 10° S 03:04:47 20° SE 03:11:15 10° E visible
15 Jun - 04:58:38 10° SW 05:08:15 57° SSE 05:17:33 10° ENE daylight
15 Jun - 07:03:06 10° WSW 07:13:00 87° NNW 07:22:31 10° E daylight
15 Jun - 09:08:33 10° WNW 09:18:15 90° SSW 09:27:37 10° ESE daylight
15 Jun - 11:13:44 10° WNW 11:22:44 50° SW 11:31:29 10° SE daylight
15 Jun - 13:21:05 10° W 13:25:46 15° SW 13:30:25 10° SSW daylight
16 Jun - 02:35:44 10° SSE 02:41:58 19° SE 02:48:05 10° E visible
16 Jun - 04:35:46 10° SW 04:45:21 54° SE 04:54:38 10° ENE daylight
16 Jun - 06:40:08 10° WSW 06:50:03 88° NNW 06:59:36 10° E daylight
16 Jun - 08:45:34 10° W 08:55:19 89° NNE 09:04:43 10° ESE daylight
16 Jun - 10:50:47 10° WNW 10:59:52 52° SW 11:08:42 10° SE daylight
16 Jun - 12:57:46 10° W 13:02:59 16° SW 13:08:09 10° SSW daylight
17 Jun - 02:13:19 10° SSE 02:19:09 17° SE 02:24:52 10° E visible
17 Jun - 04:12:54 10° SW 04:22:27 52° SE 04:31:42 10° ENE daylight
17 Jun - 06:17:09 10° WSW 06:27:06 90° NNW 06:36:41 10° ENE daylight
17 Jun - 08:22:36 10° W 08:32:23 88° NNE 08:41:48 10° ESE daylight
17 Jun - 10:27:49 10° WNW 10:37:00 55° SW 10:45:56 10° SE daylight
17 Jun - 12:34:31 10° W 12:40:12 18° SW 12:45:49 10° SSW daylight
18 Jun - 01:50:59 10° SSE 01:56:20 16° SE 02:01:36 10° E visible
18 Jun - 03:50:05 10° SW 03:59:34 50° SE 04:08:46 10° ENE daylight
18 Jun - 05:54:11 10° WSW 06:04:09 89° SSE 06:13:47 10° ENE daylight
18 Jun - 07:59:37 10° W 08:09:26 87° N 08:18:53 10° E daylight
18 Jun - 10:04:51 10° WNW 10:14:08 57° SSW 10:23:08 10° SE daylight
18 Jun - 12:11:19 10° W 12:17:24 19° SW 12:23:26 10° SSW daylight
19 Jun - 01:28:44 10° SSE 01:33:31 15° ESE 01:38:15 10° E visible
19 Jun - 03:27:15 10° SSW 03:36:41 48° SE 03:45:50 10° ENE daylight
19 Jun - 05:31:13 10° WSW 05:41:13 88° SSE 05:50:51 10° ENE daylight
19 Jun - 07:36:38 10° W 07:46:30 86° N 07:55:59 10° E daylight
19 Jun - 09:41:53 10° WNW 09:51:15 60° SSW 10:00:19 10° SE daylight
19 Jun - 11:48:09 10° W 11:54:37 21° SW 12:00:59 10° S daylight
20 Jun - 01:06:35 10° SSE 01:10:43 13° ESE 01:14:48 10° E visible
20 Jun - 03:04:26 10° SSW 03:13:48 45° SE 03:22:54 10° ENE daylight
20 Jun - 05:08:14 10° WSW 05:18:16 86° SSE 05:27:56 10° ENE daylight
20 Jun - 07:13:40 10° W 07:23:33 85° N 07:33:03 10° E daylight
20 Jun - 09:18:55 10° WNW 09:28:22 62° SSW 09:37:30 10° SE daylight
20 Jun - 11:25:02 10° W 11:31:49 23° SW 11:38:30 10° S daylight
21 Jun - 00:44:39 10° SE 00:47:55 12° ESE 00:51:09 10° ESE visible
21 Jun - 02:41:39 10° SSW 02:50:55 43° SE 02:59:56 10° ENE visible
21 Jun - 04:45:17 10° WSW 04:55:19 84° SSE 05:05:01 10° ENE daylight
21 Jun - 06:50:41 10° W 07:00:36 84° N 07:10:08 10° E daylight
21 Jun - 08:55:58 10° WNW 09:05:29 65° SSW 09:14:40 10° SE daylight
21 Jun - 11:01:55 10° W 11:09:01 24° SW 11:15:59 10° S daylight
22 Jun - 00:23:09 10° SE 00:25:07 11° ESE 00:27:04 10° ESE visible
22 Jun - 02:18:52 10° SSW 02:28:02 41° SE 02:36:59 10° ENE visible
22 Jun - 04:22:18 10° WSW 04:32:23 83° SSE 04:42:06 10° ENE daylight
22 Jun - 06:27:41 10° W 06:37:38 84° N 06:47:12 10° E daylight
22 Jun - 08:32:59 10° WNW 08:42:35 67° SSW 08:51:50 10° SE daylight
22 Jun - 10:38:49 10° W 10:46:12 26° SW 10:53:26 10° S daylight
